This demonstration page uses our WeatherBlox Daily Observations layout. Learn more.

Left ArrowRight Arrow

Hourly Observations for October 28, 2022

Temp ( °F °C ) Dew Point ( °F °C ) Humidity (%) Winds ( mph kmh ) Pressure ( in mb ) Visibility ( mi km ) Precip ( " mm )
12:51 am 00:51 Clear 47 8.3 12 -11.1 24 24 ENE 8 13 30.14 1021 10 16 0.00 0.00
1:51 am 01:51 Clear 44 6.7 14 -10 29 29 SSW 7 11 30.15 1021 10 16 0.00 0.00
2:51 am 02:51 Clear 43 6.1 14 -10 30 30 S 5 7 30.14 1021 10 16 0.00 0.00
3:51 am 03:51 Clear 46 7.8 15 -9.4 28 28 ESE 9 15 30.13 1020 10 16 0.00 0.00
4:51 am 04:51 Clear 44 6.7 14 -10 29 29 SE 12 19 30.17 1022 10 16 0.00 0.00
5:51 am 05:51 Clear 43 6.1 14 -10 30 30 SE 13 20 30.20 1023 10 16 0.00 0.00
6:51 am 06:51 Sunny 42 5.6 14 -10 31 31 SE 13 20 30.23 1024 10 16 0.00 0.00
7:51 am 07:51 Sunny 46 7.8 14 -10 27 27 ESE 10 17 30.27 1025 10 16 0.00 0.00
8:51 am 08:51 Sunny 52 11.1 17 -8.3 25 25 ESE 9 15 30.29 1026 10 16 0.00 0.00
9:51 am 09:51 Sunny 56 13.3 20 -6.7 24 24 SSE 8 13 30.28 1026 10 16 0.00 0.00
10:51 am 10:51 Sunny 60 15.6 20 -6.7 21 21 SE 7 11 30.27 1025 10 16 0.00 0.00
11:51 am 11:51 Sunny 62 16.7 22 -5.6 21 21 S 7 11 30.25 1024 10 16 0.00 0.00
12:51 pm 12:51 Sunny 65 18.3 22 -5.6 19 19 SSE 9 15 30.21 1023 10 16 0.00 0.00
1:51 pm 13:51 Sunny 67 19.4 24 -4.4 20 20 undefined N/A 30.17 1022 10 16 0.00 0.00
2:51 pm 14:51 Sunny 68 20 24 -4.4 19 19 ESE 9 15 30.15 1021 10 16 0.00 0.00
3:51 pm 15:51 Sunny 70 21.1 25 -3.9 18 18 ENE 9 15 30.13 1020 10 16 0.00 0.00
4:51 pm 16:51 Sunny 69 20.6 26 -3.3 20 20 SE 8 13 30.11 1020 10 16 0.00 0.00
5:51 pm 17:51 Clear 62 16.7 26 -3.3 25 25 ESE 6 9 30.13 1020 10 16 0.00 0.00
6:51 pm 18:51 Clear 57 13.9 26 -3.3 30 30 E 7 11 30.14 1021 10 16 0.00 0.00
7:51 pm 19:51 Clear 56 13.3 27 -2.8 33 33 SE 5 7 30.15 1021 10 16 0.00 0.00
8:51 pm 20:51 Clear 52 11.1 28 -2.2 39 39 SSE 8 13 30.16 1021 10 16 0.00 0.00
9:51 pm 21:51 Clear 52 11.1 28 -2.2 39 39 SE 7 11 30.17 1022 10 16 0.00 0.00
10:51 pm 22:51 Clear 53 11.7 27 -2.8 36 36 SE 9 15 30.16 1021 10 16 0.00 0.00
11:51 pm 23:51 Clear 48 8.9 28 -2.2 46 46 SE 5 7 30.16 1021 10 16 0.00 0.00

Powered by AerisWeather